NOAA 16 DEB, 41537

Orbit data source: Space-Track

NOAA 16 DEB, 41537 is space debris in SSO originally from a launch on Thu, 21 Sep 2000 UTC launched from the Air Force Western Test Range (AFWTR). Debris objects in space refer to the collection of defunct objects orbiting the Earth. Examples of debris include non-operational satellites, rocket bodies, and fragments generated from explosions, collisions, or faulty payload assembly.

Loading next visibility...
Identifier
41537, 2000-055NM
Orbit
SSO
Country
Flag of USUS
Related business
Manufacturer
Unknown
Mission
Spacecraft
Bus & Motor
Unknown
Mass
Unknown
Launch date (UTC)
2000-09-21 (26 years ago)
Launch vehicle
Unknown
Launch site
Air Force Western Test Range (AFWTR)
Object type
Payload
Rocket body
Debris
Shape & HBR
Unknown shape, 0.1 m
Radar Cross Section
Small (<0.1 m²)

Expand to show TLE details & history
Last TLE update: 2 days ago

TLE from 2 days ago
0 NOAA 16 DEB
1 41537U 00055NM  26234.44539860  .00001245  00000-0  56039-3 0  9994
2 41537  98.5827 296.5561 0004293 104.1569 256.0087 14.24052358547052
Epoch: 2026-08-22T10:41Z
TLE epoch observation values (Epoch: 2026-08-22T10:41:22.439Z)
Latitude
-0.00003°
Longitude
165.45691°
Altitude
815.352 km
Speed
7.445 km/s
True Right ascension
19h 46m 13s
True Declination
0° 00' 00"
Sunlit
Object was in full shadow at epoch
Visualization orbit readout
Latitude
Unknown
Longitude
Unknown
Altitude
Unknown
Speed
Unknown
Apparent Right ascension
Unknown
Apparent Declination
Unknown
Sunlit
N/A
Visualization observer readout
Local Sidereal Time
10:20:51
Azimuth
Unknown
Elevation
Unknown
Doppler factor
Unknown
Orbital elements
Apogee altitude
811.913 km
Perigee altitude
805.742 km
Semi-major axis
7,186.965 km
Eccentricity
0.00043
Inclination
98.5827°
RAAN
296.5561°
Arg. of periapsis
104.1569°
True anomaly
255.96097°
Mean anomaly
256.0087°
Eccentric anomaly
255.98484°
Mean motion
3.56225 °/min
Orbital period
101.06 mins
BSTAR
0.00056039
Loading maneuver chart data...
Computing Atmospheric mass density...
Loading historical data...
Loading historical data...
Loading historical data...
Loading historical data...
Loading historical data...
Loading historical data...
Loading historical data...

Documentation

Showing up to 5 results
|